Temperature
-3 -3 -3 -3 -3 -4 -4 -3 -2 -2 -3 -2 -3 -4 -4 -3 -3 -3 -3 -3 -3 -3 -3 -3 -3 -4 -4 -4 -4 -4 -4 -4 -4 -4 -4 -4 -4 -4 -4 -4 -4 -4 -4 -4
-4 -3 -3 -3 -3 -3 -3 -3 -4 -3 -3 -4 -4 -4 -4 -4 -4 -4 -4 -4 -4 -4 -4 -4 -4 -4 -4 -4 -4 -4 -4 -4 -4 -4 -4 -5 -5 -5 -5 -5 -5 -5 -4 -4
-4 -4 -4 -3 -4 -4 -5 -5 -4 -3 -3 -5 -5 -5 -5 -4 -4 -4 -4 -4 -4 -4 -4 -4 -4 -5 -5 -5 -5 -5 -5 -5 -5 -5 -5 -5 -5 -5 -5 -5 -5 -5 -5 -5
-5 -4 -4 -3 -5 -5 -5 -6 -6 -5 -5 -5 -5 -5 -5 -4 -4 -4 -4 -4 -4 -4 -5 -5 -5 -5 -5 -5 -5 -5 -5 -5 -5 -5 -6 -6 -6 -6 -6 -6 -6 -6 -5 -5
-5 -5 -4 -4 -5 -6 -6 -6 -6 -6 -6 -6 -6 -6 -5 -4 -4 -4 -5 -5 -5 -5 -5 -5 -6 -6 -6 -6 -6 -6 -6 -6 -6 -6 -6 -6 -6 -6 -6 -6 -6 -6 -6 -6
-5 -4 -4 -4 -6 -6 -6 -5 -6 -7 -7 -7 -7 -6 -6 -5 -5 -5 -5 -5 -5 -6 -6 -6 -6 -6 -6 -6 -6 -6 -6 -6 -7 -7 -7 -7 -6 -6 -6 -7 -6 -6 -6 -6
-6 -5 -5 -6 -7 -6 -5 -5 -6 -7 -7 -7 -7 -6 -6 -6 -6 -6 -6 -6 -6 -6 -6 -7 -7 -7 -7 -7 -7 -7 -7 -7 -7 -7 -7 -7 -7 -7 -7 -7 -7 -7 -7 -6
-7 -6 -5 -7 -7 -7 -6 -6 -6 -7 -7 -7 -7 -7 -7 -7 -7 -6 -7 -6 -7 -7 -7 -7 -7 -8 -8 -7 -7 -7 -7 -7 -7 -7 -7 -7 -7 -7 -7 -7 -7 -7 -7 -7
-7 -6 -7 -8 -7 -6 -6 -7 -7 -7 -7 -7 -7 -7 -7 -7 -7 -7 -7 -7 -7 -8 -8 -8 -8 -8 -8 -8 -8 -8 -8 -8 -8 -8 -8 -8 -8 -8 -8 -8 -8 -8 -8 -7
-9 -9 -8 -8 -7 -7 -7 -7 -7 -7 -7 -7 -8 -8 -8 -7 -7 -7 -8 -8 -8 -8 -8 -8 -8 -9 -9 -9 -8 -8 -8 -8 -8 -8 -8 -8 -8 -8 -8 -8 -8 -8 -8 -8
-10 -10 -9 -8 -7 -7 -7 -7 -7 -7 -7 -8 -8 -8 -8 -8 -8 -8 -8 -8 -9 -9 -9 -9 -9 -9 -9 -9 -9 -9 -9 -9 -9 -9 -8 -8 -8 -8 -9 -8 -8 -8 -8 -8
-8 -9 -9 -8 -7 -7 -8 -8 -8 -8 -8 -8 -8 -8 -9 -9 -9 -9 -9 -9 -9 -9 -9 -9 -9 -9 -9 -9 -9 -9 -9 -9 -9 -9 -9 -9 -9 -9 -9 -9 -8 -8 -8 -8
-8 -8 -8 -8 -8 -8 -8 -8 -8 -8 -8 -9 -9 -9 -9 -9 -9 -9 -9 -10 -10 -10 -10 -10 -10 -10 -10 -10 -10 -10 -10 -10 -10 -10 -10 -10 -9 -9 -9 -9 -8 -8 -8 -8
-8 -8 -9 -8 -8 -8 -8 -8 -9 -9 -9 -9 -9 -9 -10 -10 -10 -10 -10 -10 -10 -10 -10 -10 -10 -10 -10 -10 -10 -10 -10 -10 -10 -10 -10 -10 -10 -10 -10 -10 -9 -9 -8 -8
-9 -9 -9 -9 -9 -9 -9 -9 -9 -9 -9 -9 -9 -10 -10 -10 -10 -10 -10 -11 -11 -10 -11 -11 -10 -10 -10 -10 -10 -10 -10 -10 -11 -11 -11 -10 -10 -10 -10 -10 -10 -10 -9 -9
-9 -9 -9 -9 -9 -9 -9 -9 -10 -10 -10 -10 -10 -10 -10 -11 -11 -11 -11 -11 -11 -11 -11 -11 -11 -11 -11 -11 -11 -11 -11 -11 -11 -11 -11 -11 -11 -11 -11 -11 -10 -10 -10 -10
-10 -10 -10 -10 -10 -10 -10 -10 -10 -10 -10 -10 -10 -11 -11 -11 -11 -11 -11 -11 -11 -11 -11 -11 -11 -11 -11 -11 -11 -11 -11 -11 -11 -11 -11 -11 -11 -11 -11 -11 -11 -11 -11 -10
-10 -10 -10 -10 -10 -10 -10 -10 -10 -11 -11 -11 -11 -11 -11 -11 -11 -11 -11 -11 -11 -11 -11 -12 -12 -12 -12 -12 -12 -12 -12 -12 -12 -12 -12 -12 -12 -12 -12 -12 -12 -11 -11 -11
-10 -10 -10 -10 -10 -10 -10 -11 -11 -11 -11 -11 -11 -11 -11 -12 -12 -12 -12 -12 -12 -12 -12 -12 -12 -12 -12 -12 -12 -12 -12 -12 -12 -12 -12 -12 -12 -12 -12 -12 -12 -12 -12 -11
-11 -11 -11 -11 -11 -11 -11 -11 -11 -11 -11 -12 -12 -12 -12 -12 -12 -12 -12 -12 -12 -13 -13 -12 -12 -12 -12 -12 -12 -12 -12 -12 -12 -12 -12 -12 -12 -12 -12 -12 -12 -12 -12 -12
-11 -11 -11 -11 -11 -11 -11 -12 -12 -12 -12 -12 -12 -12 -12 -12 -13 -13 -13 -13 -13 -13 -13 -13 -13 -13 -13 -13 -13 -13 -13 -13 -13 -13 -13 -13 -13 -13 -13 -13 -13 -13 -13 -12
-11 -11 -11 -11 -11 -12 -12 -12 -12 -12 -12 -13 -13 -13 -13 -13 -13 -13 -13 -13 -13 -13 -13 -13 -13 -13 -13 -13 -13 -13 -13 -13 -13 -13 -13 -13 -13 -13 -13 -13 -13 -13 -13 -13
-12 -12 -12 -12 -12 -12 -12 -13 -13 -13 -13 -13 -13 -13 -13 -14 -14 -14 -14 -14 -14 -14 -14 -14 -14 -14 -14 -14 -13 -13 -13 -13 -13 -14 -14 -14 -14 -14 -13 -13 -13 -13 -13 -13
-12 -12 -12 -12 -13 -13 -13 -13 -13 -13 -13 -14 -14 -14 -14 -14 -14 -14 -14 -14 -14 -14 -14 -14 -14 -14 -14 -14 -14 -14 -14 -14 -14 -14 -14 -14 -14 -14 -14 -14 -14 -14 -13 -13
-13 -13 -13 -13 -13 -13 -13 -13 -14 -14 -14 -14 -14 -14 -14 -15 -15 -14 -14 -14 -15 -14 -14 -14 -14 -14 -14 -14 -14 -14 -14 -14 -14 -14 -14 -14 -14 -14 -14 -14 -14 -14 -14 -14
-13 -13 -13 -13 -13 -14 -14 -14 -14 -14 -14 -14 -14 -14 -15 -15 -15 -15 -15 -15 -15 -15 -15 -15 -15 -15 -15 -15 -15 -15 -14 -14 -14 -14 -14 -14 -14 -14 -14 -14 -14 -14 -14 -14
-13 -13 -14 -14 -14 -14 -14 -14 -14 -15 -15 -15 -15 -15 -15 -15 -15 -15 -15 -15 -15 -15 -15 -15 -15 -15 -15 -15 -15 -15 -15 -15 -15 -15 -15 -15 -15 -15 -15 -15 -15 -15 -15 -14
Wind_Speed
4 4 2 5 6 7 9 9 9 9 10 11 8 6 5 4 3 3 3 3 3 3 3 3 3 3 3 4 4 4 4 5 5 5 5 5 5 6 6 6 6 7 7 7
4 4 3 6 7 9 10 8 9 10 12 8 6 4 4 5 4 5 5 4 4 4 4 4 4 4 4 4 4 4 5 6 6 5 5 5 5 5 6 6 6 6 7 8
4 3 3 7 8 9 5 6 7 11 10 4 4 5 5 5 5 6 6 5 5 5 5 5 5 5 5 5 4 5 5 6 5 5 6 6 6 6 6 6 6 7 8 8
2 1 7 7 1 5 6 6 7 6 6 4 6 5 5 5 6 6 5 5 5 5 5 4 4 4 4 4 5 5 5 6 6 6 6 6 6 7 7 6 6 7 8 8
2 4 7 6 2 2 4 6 5 7 6 4 3 3 4 3 2 4 4 4 4 4 5 4 4 4 4 4 5 5 6 6 6 6 7 7 7 7 7 6 7 7 8 8
3 3 6 5 2 1 3 5 3 4 5 3 2 3 5 3 3 4 4 3 3 4 4 4 4 3 4 5 5 6 6 7 7 7 7 8 8 8 7 7 8 8 8 8
4 5 7 4 2 2 3 5 4 2 3 3 3 5 5 5 5 4 4 4 3 3 4 4 4 3 4 5 6 6 6 6 7 7 7 8 8 7 7 7 7 7 9 9
4 4 7 1 3 4 4 3 3 3 2 2 4 4 4 5 6 5 5 5 4 4 5 5 4 4 5 6 6 5 6 6 7 7 7 6 7 7 7 7 7 7 8 8
7 6 2 2 3 3 1 2 3 3 3 3 4 5 5 5 5 5 5 4 4 4 5 5 4 4 6 7 6 6 6 7 7 7 6 6 7 7 6 6 6 7 7 7
4 6 5 4 3 3 2 3 4 3 3 3 4 4 5 5 5 5 4 4 4 4 5 6 6 5 5 6 5 5 6 7 6 6 6 6 5 5 6 6 6 7 7 7
4 5 5 4 4 5 4 3 3 3 3 3 2 4 4 4 5 4 5 4 4 4 5 7 7 7 6 6 4 5 6 6 6 6 6 5 5 5 6 7 8 8 7 6
6 5 4 6 5 3 3 4 3 3 4 3 3 4 4 4 4 4 4 4 5 5 5 6 6 7 7 5 4 5 5 6 5 5 5 4 4 5 7 8 10 11 11 9
6 5 5 6 6 4 4 4 3 3 3 4 3 3 3 3 4 4 4 5 5 6 6 6 6 7 7 6 5 5 5 6 5 5 5 5 5 5 6 6 8 9 10 10
4 3 4 4 5 5 4 3 2 2 2 2 2 2 2 3 4 4 5 5 5 5 5 5 6 7 7 6 5 5 6 6 6 4 4 5 5 5 5 5 6 6 7 10
3 3 4 4 4 3 3 2 2 3 3 3 2 2 2 3 4 5 5 5 5 5 5 5 6 7 7 6 6 6 5 5 5 5 4 5 5 5 5 5 5 5 5 6
4 3 2 2 3 3 3 2 2 3 3 3 3 4 3 3 4 5 5 4 4 5 6 6 7 7 7 6 6 5 5 8 7 5 4 4 4 4 4 5 5 5 5 5
2 3 3 4 4 4 3 3 3 3 3 3 4 4 4 4 4 5 6 5 4 5 5 5 7 7 7 6 5 5 5 6 8 6 4 5 4 5 4 4 5 5 5 7
4 4 4 4 4 4 4 3 2 2 3 4 3 3 3 3 4 6 6 6 5 5 6 5 6 6 6 6 5 4 4 4 5 5 5 5 5 4 4 4 5 5 5 7
3 3 2 2 2 2 2 2 3 3 3 2 2 3 3 4 4 4 5 5 5 6 7 7 10 7 6 7 7 4 4 5 5 5 5 7 6 5 4 5 5 5 5 5
3 2 2 2 2 1 2 2 2 2 2 2 2 3 3 4 4 4 4 4 4 5 6 8 7 6 6 7 7 4 4 5 5 5 5 5 5 5 5 5 5 5 5 5
3 3 3 3 3 2 2 1 1 2 2 2 2 2 3 4 4 4 4 5 5 6 6 8 6 6 6 7 7 4 4 4 5 5 5 5 5 5 5 5 6 6 5 5
3 3 3 3 2 3 3 2 1 1 2 3 3 3 3 4 4 4 3 3 5 9 6 5 5 8 9 8 4 4 4 5 5 5 5 5 5 5 5 6 5 6 5 5
3 2 2 2 2 2 3 2 2 2 2 3 3 3 3 3 3 3 5 4 5 8 6 5 8 11 11 6 4 4 5 5 5 5 5 5 5 5 5 6 5 5 5 5
2 2 2 2 2 2 3 3 3 2 2 3 3 3 3 3 3 3 3 7 9 9 5 8 12 12 10 4 4 4 4 5 5 5 5 5 5 5 5 5 5 5 5 6
2 2 2 2 2 2 2 3 3 3 3 3 3 3 3 2 3 4 4 5 8 9 6 8 12 11 7 4 4 4 4 5 5 5 4 4 5 5 5 5 5 5 6 6
2 2 2 2 2 2 2 2 2 3 3 4 4 3 3 3 3 3 4 4 6 8 6 5 6 7 5 5 5 5 5 6 6 5 5 5 5 5 5 5 6 5 5 6
2 2 2 2 2 2 2 2 2 3 3 3 4 4 4 4 4 4 4 4 5 5 5 5 4 4 5 5 5 5 5 5 5 5 5 4 5 5 5 6 5 5 5 6
Wind_Direction
265 277 213 232 233 205 207 215 222 245 247 263 269 268 273 270 273 275 280 275 269 267 270 275 277 273 268 272 273 274 269 266 265 267 267 268 270 270 270 267 263 253 253 255
281 282 260 269 256 226 228 234 240 260 268 264 275 278 276 268 261 260 269 273 277 277 278 276 274 276 278 275 274 270 264 266 269 269 269 268 268 270 272 269 268 258 250 251
266 300 326 270 239 213 217 219 209 236 251 278 291 276 263 261 256 253 261 270 273 273 271 270 268 268 267 270 275 269 267 270 270 268 270 271 272 273 270 268 268 266 257 250
243 21 245 249 217 194 212 241 227 239 261 262 262 277 277 262 244 252 262 270 274 278 281 283 278 276 276 275 273 270 269 269 271 271 272 273 269 266 265 267 263 263 264 255
190 233 269 288 272 178 203 265 242 241 264 287 309 317 303 280 253 258 270 274 276 280 284 282 280 276 277 280 278 275 273 272 270 267 267 269 266 264 264 264 264 262 262 260
180 216 245 261 290 240 129 279 275 232 252 276 341 301 287 319 325 317 310 302 299 302 304 291 285 278 275 279 279 275 275 275 272 265 261 263 263 265 264 261 260 262 264 260
207 231 259 266 281 126 171 266 315 260 248 234 234 248 284 313 319 318 316 313 313 311 305 296 295 291 285 284 280 282 284 282 276 268 264 263 263 262 261 261 262 261 263 263
182 220 254 256 128 179 229 299 309 290 276 259 277 293 304 312 315 321 322 321 321 317 310 307 303 294 288 285 286 291 289 287 282 276 271 268 261 262 258 255 258 260 262 266
202 221 263 180 202 238 252 280 292 291 295 282 290 296 305 309 311 313 312 312 315 309 310 311 305 293 285 289 294 296 297 292 289 285 278 272 262 258 258 251 251 256 257 262
253 265 274 269 283 300 280 272 288 291 288 277 283 293 303 306 309 309 311 312 315 316 313 311 311 303 289 292 295 295 296 298 296 292 288 282 272 254 252 250 251 254 255 259
258 283 311 288 267 274 284 293 304 311 297 277 277 295 298 304 306 306 311 312 310 307 307 307 312 309 305 303 300 299 298 301 302 299 294 287 283 266 259 252 249 253 254 256
242 246 241 270 280 273 276 284 283 299 312 306 284 283 298 301 303 306 306 309 312 312 311 310 313 312 311 311 306 301 305 309 307 305 302 295 291 293 285 275 273 269 267 268
249 272 265 279 291 285 274 281 287 287 279 294 305 298 303 306 312 314 313 314 310 310 310 310 314 314 314 315 312 305 302 306 306 304 303 301 294 294 300 305 295 286 280 279
267 279 283 282 286 296 296 302 313 321 311 302 307 317 318 315 317 318 313 309 309 313 315 317 321 318 317 318 315 310 307 308 309 303 303 303 303 301 298 300 307 307 302 296
287 273 266 284 303 318 321 329 344 338 338 340 336 327 320 317 314 313 312 314 321 323 323 326 326 322 325 323 318 312 312 312 312 311 308 307 308 307 304 301 300 302 309 313
303 314 304 301 306 317 327 327 320 316 325 327 329 325 321 315 313 316 322 328 327 322 322 324 321 320 325 324 320 318 315 317 321 317 315 314 313 310 310 311 311 311 310 311
299 302 303 303 302 306 307 298 288 294 311 316 315 319 325 330 331 332 332 333 325 315 316 317 316 319 323 323 319 314 313 318 326 325 320 317 315 312 312 312 313 313 311 314
256 262 258 256 263 281 303 313 308 305 303 304 314 326 330 330 323 320 324 329 332 330 326 320 318 324 327 325 321 316 316 319 323 321 320 318 316 316 315 313 315 315 317 321
301 299 297 293 276 263 280 299 306 309 309 313 321 323 319 317 315 317 325 334 335 331 326 324 330 340 329 325 331 323 327 327 327 326 324 324 327 326 323 322 320 320 320 324
338 337 340 341 342 320 306 311 317 322 321 322 327 333 333 328 326 327 330 326 314 303 307 319 328 328 324 324 334 330 331 330 327 326 326 326 324 326 327 326 325 325 326 328
340 343 349 354 348 343 331 319 324 323 325 329 325 317 316 320 325 327 330 326 323 322 325 331 336 326 323 330 335 339 336 332 328 324 324 325 326 327 329 330 330 330 330 331
333 338 343 347 351 342 339 339 334 328 333 336 331 322 323 324 327 325 312 300 311 325 335 329 325 328 336 340 347 343 336 333 329 326 327 327 327 327 329 331 331 331 331 330
328 333 336 338 336 328 335 345 343 335 326 320 314 311 307 305 312 317 318 320 320 327 336 325 328 334 342 352 350 341 336 334 330 328 328 328 326 324 325 327 328 328 328 329
341 344 339 341 1 12 356 346 345 339 325 317 313 307 304 313 319 309 294 316 329 331 334 328 335 339 345 355 344 336 331 328 324 323 324 325 326 327 327 326 326 327 328 329
343 347 351 356 357 342 328 332 341 343 341 335 328 326 320 304 298 311 319 322 327 334 334 332 337 341 348 339 334 327 323 319 318 323 325 326 324 324 323 322 323 323 325 325
346 342 332 325 319 318 325 333 335 331 335 333 332 332 331 327 318 315 318 319 321 329 331 326 327 331 331 326 322 321 318 319 324 327 323 319 318 318 317 319 320 320 318 317
351 352 350 345 341 334 328 327 323 321 323 317 315 322 327 328 326 324 321 320 322 322 320 318 319 319 319 319 318 318 316 314 314 314 314 313 312 311 311 310 309 310 310 310
Height
1489 1486 1487 1486 1486 1489 1490 1486 1485 1478 1477 1470 1470 1470 1469 1468 1468 1467 1467 1467 1467 1466 1466 1466 1466 1466 1466 1466 1466 1465 1465 1465 1464 1464 1464 1463 1462 1462 1462 1462 1461 1461 1461 1461
1489 1486 1486 1483 1480 1482 1482 1481 1480 1477 1473 1467 1467 1467 1466 1465 1465 1465 1464 1464 1464 1464 1463 1463 1462 1462 1461 1461 1461 1461 1460 1460 1459 1458 1458 1457 1457 1456 1456 1456 1455 1455 1455 1454
1488 1488 1484 1481 1476 1477 1478 1475 1475 1473 1467 1465 1466 1465 1463 1463 1462 1462 1462 1461 1461 1460 1460 1459 1459 1458 1457 1456 1456 1456 1455 1454 1454 1453 1452 1451 1451 1451 1450 1450 1449 1449 1449 1448
1489 1489 1486 1470 1470 1469 1471 1470 1470 1466 1464 1463 1463 1462 1461 1460 1460 1459 1459 1458 1458 1457 1456 1455 1455 1454 1453 1452 1451 1450 1449 1448 1447 1447 1446 1446 1445 1445 1444 1444 1443 1442 1442 1441
1488 1487 1478 1471 1469 1470 1471 1468 1465 1464 1463 1462 1461 1460 1458 1457 1457 1457 1456 1456 1455 1454 1453 1451 1450 1449 1448 1447 1445 1444 1443 1442 1441 1441 1440 1439 1439 1439 1438 1438 1437 1436 1436 1435
1486 1484 1478 1468 1468 1466 1469 1468 1461 1461 1460 1461 1460 1461 1457 1455 1454 1453 1453 1452 1451 1450 1449 1447 1446 1445 1443 1442 1440 1439 1438 1437 1436 1435 1435 1434 1433 1433 1432 1431 1430 1430 1429 1429
1485 1483 1473 1468 1466 1466 1470 1464 1460 1458 1457 1458 1458 1458 1455 1453 1452 1451 1450 1449 1448 1446 1445 1443 1442 1440 1438 1437 1436 1434 1433 1432 1431 1430 1429 1428 1427 1426 1425 1424 1424 1423 1422 1422
1484 1482 1473 1466 1466 1467 1463 1460 1458 1456 1456 1456 1455 1453 1452 1450 1449 1447 1446 1445 1444 1442 1441 1439 1438 1436 1434 1432 1431 1430 1428 1426 1425 1424 1423 1422 1420 1419 1418 1418 1417 1416 1415 1415
1473 1470 1464 1462 1461 1460 1459 1458 1457 1455 1454 1454 1452 1451 1449 1448 1446 1444 1443 1442 1441 1439 1437 1436 1434 1432 1430 1428 1427 1425 1423 1421 1420 1418 1417 1415 1414 1412 1411 1411 1410 1409 1409 1408
1471 1464 1462 1460 1459 1458 1458 1456 1455 1454 1453 1452 1450 1449 1447 1445 1443 1442 1440 1439 1438 1436 1434 1432 1431 1429 1427 1424 1422 1420 1418 1416 1414 1412 1410 1409 1406 1405 1405 1404 1404 1403 1403 1402
1468 1463 1460 1457 1456 1456 1455 1454 1453 1452 1451 1450 1448 1446 1445 1443 1441 1440 1438 1437 1435 1433 1431 1429 1427 1425 1423 1421 1419 1416 1414 1412 1410 1407 1404 1402 1401 1400 1399 1398 1398 1398 1397 1397
1462 1458 1459 1455 1453 1453 1452 1451 1450 1449 1448 1447 1446 1444 1443 1441 1439 1438 1436 1434 1432 1430 1429 1427 1425 1422 1420 1418 1416 1413 1410 1408 1405 1403 1400 1398 1397 1395 1395 1394 1393 1393 1392 1392
1457 1455 1454 1453 1451 1450 1450 1449 1448 1447 1446 1445 1443 1442 1441 1439 1437 1436 1434 1432 1430 1428 1426 1424 1422 1420 1418 1415 1413 1410 1408 1405 1402 1400 1397 1395 1393 1391 1389 1388 1388 1388 1387 1386
1454 1453 1451 1450 1449 1448 1447 1446 1445 1444 1444 1443 1441 1440 1439 1437 1436 1434 1432 1431 1429 1427 1425 1423 1420 1418 1416 1413 1411 1408 1406 1403 1401 1398 1395 1393 1390 1389 1387 1384 1383 1381 1381 1381
1451 1450 1449 1448 1446 1446 1445 1444 1443 1442 1441 1440 1439 1438 1437 1435 1434 1432 1431 1429 1427 1425 1423 1421 1418 1416 1414 1411 1409 1406 1404 1401 1399 1396 1394 1391 1389 1387 1385 1383 1380 1378 1376 1375
1448 1447 1446 1445 1444 1443 1442 1441 1440 1440 1439 1438 1437 1436 1435 1434 1432 1430 1429 1427 1425 1423 1421 1419 1416 1414 1412 1409 1407 1404 1402 1400 1397 1394 1392 1389 1387 1385 1383 1380 1378 1376 1374 1372
1446 1444 1444 1443 1442 1441 1440 1440 1439 1438 1438 1437 1436 1435 1433 1432 1430 1429 1427 1426 1424 1421 1419 1417 1415 1413 1411 1408 1405 1403 1400 1398 1396 1393 1390 1388 1386 1384 1381 1379 1376 1374 1372 1371
1445 1444 1443 1442 1440 1440 1439 1438 1438 1437 1436 1435 1434 1433 1432 1430 1429 1427 1425 1423 1421 1420 1418 1415 1413 1411 1409 1406 1404 1401 1399 1396 1394 1391 1389 1387 1384 1382 1380 1378 1375 1372 1370 1368
1442 1442 1441 1440 1439 1438 1438 1437 1437 1436 1435 1434 1433 1432 1431 1429 1428 1426 1424 1422 1419 1417 1415 1413 1411 1410 1407 1405 1402 1400 1397 1395 1392 1390 1388 1385 1383 1381 1378 1376 1373 1371 1369 1366
1441 1440 1439 1439 1438 1437 1436 1436 1435 1434 1434 1433 1431 1430 1429 1428 1426 1424 1422 1420 1419 1416 1414 1412 1410 1408 1405 1403 1401 1399 1396 1394 1391 1389 1386 1384 1381 1379 1377 1374 1372 1369 1367 1365
1440 1439 1438 1437 1437 1436 1435 1435 1434 1433 1432 1431 1430 1429 1427 1426 1425 1423 1421 1419 1417 1415 1413 1411 1409 1406 1404 1402 1400 1397 1395 1393 1390 1388 1386 1383 1380 1378 1375 1373 1371 1368 1366 1364
1439 1438 1437 1436 1436 1435 1434 1433 1432 1432 1431 1430 1429 1427 1426 1424 1423 1421 1420 1418 1416 1414 1411 1409 1407 1405 1403 1401 1398 1396 1394 1391 1389 1387 1384 1382 1379 1377 1375 1372 1370 1368 1366 1364
1439 1438 1437 1436 1435 1434 1433 1432 1431 1430 1429 1428 1427 1426 1424 1423 1421 1419 1417 1416 1414 1412 1410 1408 1406 1404 1402 1399 1397 1395 1392 1390 1388 1386 1383 1381 1379 1376 1374 1372 1370 1367 1365 1363
1438 1437 1436 1435 1434 1433 1432 1431 1430 1429 1428 1427 1426 1424 1423 1421 1419 1418 1417 1415 1413 1411 1409 1407 1405 1402 1400 1398 1395 1393 1391 1389 1386 1384 1382 1380 1378 1376 1373 1371 1369 1367 1364 1362
1438 1437 1436 1434 1433 1432 1431 1430 1429 1428 1427 1426 1424 1423 1422 1420 1418 1416 1415 1413 1411 1409 1407 1405 1403 1401 1398 1396 1394 1392 1389 1387 1385 1383 1381 1379 1376 1374 1372 1370 1368 1366 1363 1361
1437 1436 1435 1434 1433 1432 1430 1429 1428 1427 1425 1424 1423 1422 1420 1419 1417 1415 1413 1411 1409 1407 1405 1403 1401 1399 1396 1394 1392 1390 1388 1386 1384 1381 1379 1377 1375 1373 1371 1369 1366 1364 1362 1360
1437 1436 1434 1433 1432 1431 1430 1428 1427 1425 1424 1423 1421 1420 1418 1417 1415 1413 1411 1409 1407 1405 1403 1401 1399 1397 1394 1392 1390 1388 1386 1384 1382 1380 1377 1375 1373 1371 1369 1367 1365 1363 1361 1359